DW7013 Weather Reports


Display with metric or nautical units.
time (UTC)temp
F
wind
direction
speed
MPH
gust
MPH
rain 1hr
in
rain 24hr
in
rain mn
in
humidity
%
barometer
mb
20260902082733 65 205 0.0 0.0 0.00 0.00 0.00 70 1023.5
20260902082220 64 153 0.0 0.0 0.00 0.00 0.00 72 1023.4
20260902081723 64 164 0.0 0.0 0.00 0.00 0.00 72 1023.3
20260902081224 64 178 0.0 0.0 0.00 0.00 0.00 72 1023.1
20260902080719 64 240 0.0 0.0 0.00 0.00 0.00 72 1023.2
20260902080227 64 240 0.0 0.0 0.00 0.00 0.00 69 1023.3
20260902075226 64 223 0.0 0.0 0.00 0.00 0.00 70 1023.1
20260902074725 64 223 0.0 0.0 0.00 0.00 0.00 69 1023.0
20260902073728 63 248 0.0 0.0 0.00 0.00 0.00 72 1023.1
20260902073216 62 176 0.0 0.0 0.00 0.00 0.00 71 1023.1
20260902072223 61 176 0.0 0.0 0.00 0.00 0.00 77 1022.8
20260902071718 60 124 0.0 0.0 0.00 0.00 0.00 77 1022.8
20260902071219 59 124 0.0 0.0 0.00 0.00 0.00 78 1023.0
20260902070721 58 124 0.0 0.0 0.00 0.00 0.00 79 1023.1
20260902070213 58 124 0.0 0.0 0.00 0.00 0.00 79 1023.1
20260902065717 57 124 0.0 0.0 0.00 0.00 0.00 81 1023.1
20260902065218 56 115 0.0 0.0 0.00 0.00 0.00 84 1023.2
20260902064717 55 115 0.0 0.0 0.00 0.00 0.00 84 1023.2
20260902064215 55 134 0.0 0.0 0.00 0.00 0.00 84 1023.1
20260902063720 55 130 0.0 0.0 0.00 0.00 0.00 84 1023.1
20260902063224 55 84 0.0 0.0 0.00 0.00 0.00 84 1023.1
20260902062210 54 144 0.0 0.0 0.00 0.00 0.00 85 1023.0
20260902061225 54 144 0.0 0.0 0.00 0.00 0.00 84 1023.1
20260902060723 53 144 0.0 0.0 0.00 0.00 0.00 85 1023.1
20260902060223 53 144 0.0 0.0 0.00 0.00 0.00 84 1023.2
20260902055723 53 329 0.0 0.0 0.00 0.00 0.00 85 1023.2
20260902055219 53 327 0.0 0.0 0.00 0.00 0.00 85 1023.2
20260902054207 52 118 0.0 0.0 0.00 0.00 0.00 84 1023.1
20260902053709 52 118 0.0 0.0 0.00 0.00 0.00 84 1023.1
20260902053215 52 118 0.0 0.0 0.00 0.00 0.00 84 1023.1
20260902052726 52 118 0.0 0.0 0.00 0.00 0.00 84 1023.1
20260902051730 52 118 0.0 0.0 0.00 0.00 0.00 84 1023.1
20260902051220 52 118 0.0 0.0 0.00 0.00 0.00 84 1023.0
20260902050721 52 118 0.0 0.0 0.00 0.00 0.00 84 1023.0
20260902050223 52 118 0.0 0.0 0.00 0.00 0.00 84 1023.0
20260902045720 52 118 0.0 0.0 0.00 0.00 0.00 84 1023.0
20260902045219 52 118 0.0 0.0 0.00 0.00 0.00 84 1022.8
20260902044719 52 118 0.0 0.0 0.00 0.00 0.00 84 1022.7
20260902043717 52 118 0.0 0.0 0.00 0.00 0.00 84 1022.8
20260902043216 52 118 0.0 0.0 0.00 0.00 0.00 84 1022.8
20260902042731 52 118 0.0 0.0 0.00 0.00 0.00 85 1022.8
20260902042226 52 118 0.0 0.0 0.00 0.00 0.00 85 1022.7
20260902041712 52 118 0.0 0.0 0.00 0.00 0.00 85 1022.8
20260902041211 52 118 0.0 0.0 0.00 0.00 0.00 85 1022.8
20260902040723 52 118 0.0 0.0 0.00 0.00 0.00 85 1022.8
20260902040238 52 118 0.0 0.0 0.00 0.00 0.00 85 1022.8
20260902035717 52 118 0.0 0.0 0.00 0.00 0.00 84 1022.7
20260902035211 52 118 0.0 0.0 0.00 0.00 0.00 85 1022.7
20260902034720 52 118 0.0 0.0 0.00 0.00 0.00 85 1022.7
20260902034213 52 118 0.0 0.0 0.00 0.00 0.00 84 1022.8
20260902033715 52 117 0.0 0.0 0.00 0.00 0.00 84 1022.7
20260902033215 52 89 0.0 0.0 0.00 0.00 0.00 84 1023.0
20260902032728 52 89 0.0 0.0 0.00 0.00 0.00 84 1023.0
20260902032225 52 89 0.0 0.0 0.00 0.00 0.00 84 1023.0
20260902031723 52 88 0.0 0.0 0.00 0.00 0.00 84 1023.0
20260902031238 52 88 0.0 0.0 0.00 0.00 0.00 84 1023.0
20260902030717 52 88 0.0 0.0 0.00 0.00 0.00 84 1023.0
20260902025720 52 88 0.0 0.0 0.00 0.00 0.00 83 1023.1
20260902025221 52 88 0.0 0.0 0.00 0.00 0.00 83 1023.0
20260902024729 52 88 0.0 0.0 0.00 0.00 0.00 83 1023.1
20260902024231 53 88 0.0 0.0 0.00 0.00 0.00 83 1023.1
20260902023724 53 88 0.0 0.0 0.00 0.00 0.00 83 1023.2
20260902023225 53 88 0.0 0.0 0.00 0.00 0.00 83 1023.0
20260902022718 53 88 0.0 0.0 0.00 0.00 0.00 83 1023.0
20260902022218 53 84 0.0 0.0 0.00 0.00 0.00 83 1023.1
20260902021722 53 84 0.0 0.0 0.00 0.00 0.00 83 1023.0
20260902021215 53 84 0.0 0.0 0.00 0.00 0.00 83 1023.0
20260902020729 53 84 0.0 0.0 0.00 0.00 0.00 83 1023.0
20260902020211 53 84 0.0 0.0 0.00 0.00 0.00 82 1022.8
20260902015719 53 84 0.0 0.0 0.00 0.00 0.00 82 1023.0
20260902014722 53 84 0.0 0.0 0.00 0.00 0.00 82 1023.0
20260902014225 53 84 0.0 0.0 0.00 0.00 0.00 82 1023.0
20260902013706 53 84 0.0 0.0 0.00 0.00 0.00 81 1023.0
20260902013214 53 84 0.0 0.0 0.00 0.00 0.00 81 1022.8
20260902012710 53 84 0.0 0.0 0.00 0.00 0.00 81 1023.0
20260902012218 53 84 0.0 0.0 0.00 0.00 0.00 81 1023.0
20260902011715 53 84 0.0 0.0 0.00 0.00 0.00 81 1023.1
20260902011217 53 84 0.0 0.0 0.00 0.00 0.00 81 1023.1
20260902010726 54 61 0.0 0.0 0.00 0.00 0.00 81 1023.2
20260902010217 54 61 0.0 0.0 0.00 0.00 0.00 81 1023.1
20260902005712 54 61 0.0 0.0 0.00 0.00 0.00 81 1023.2
20260902005230 54 20 0.0 0.0 0.00 0.00 0.00 81 1023.3
20260902004714 54 58 0.0 0.0 0.00 0.00 0.00 80 1023.3
20260902004216 54 58 0.0 0.0 0.00 0.00 0.00 80 1023.3
20260902003721 54 22 0.0 0.0 0.00 0.00 0.00 80 1023.3
20260902003225 54 11 0.0 0.0 0.00 0.00 0.00 80 1023.3
20260902002719 54 11 0.0 0.0 0.00 0.00 0.00 80 1023.3
20260902002212 54 11 0.0 0.0 0.00 0.00 0.00 80 1023.3
20260902001732 54 11 0.0 0.0 0.00 0.00 0.00 80 1023.3
20260902001216 54 11 0.0 0.0 0.00 0.00 0.00 80 1023.4
20260902000711 54 12 0.0 0.0 0.00 0.00 0.00 80 1023.5
20260902000215 54 12 0.0 0.0 0.00 0.00 0.00 81 1023.5
20260901235223 54 88 0.0 0.0 0.00 0.00 0.00 81 1023.5
20260901234731 54 88 0.0 0.0 0.00 0.00 0.00 80 1023.5
20260901234225 54 88 0.0 0.0 0.00 0.00 0.00 80 1023.6
20260901233707 55 88 0.0 0.0 0.00 0.00 0.00 79 1023.6
20260901233214 55 48 0.0 0.0 0.00 0.00 0.00 79 1023.5
20260901232220 55 52 0.0 0.0 0.00 0.00 0.00 79 1023.5
20260901231709 55 52 0.0 0.0 0.00 0.00 0.00 79 1023.5
20260901231219 55 50 0.0 0.0 0.00 0.00 0.00 79 1023.5
20260901230225 55 92 0.0 0.0 0.00 0.00 0.00 78 1023.6
20260901225717 55 31 0.0 0.0 0.00 0.00 0.00 78 1023.6
20260901225219 56 31 0.0 0.0 0.00 0.00 0.00 78 1023.5
20260901224709 56 104 0.0 0.0 0.00 0.00 0.00 77 1023.5
20260901223721 56 104 0.0 0.0 0.00 0.00 0.00 77 1023.5
20260901223229 56 113 0.0 0.0 0.00 0.00 0.00 77 1023.5
20260901222730 56 30 0.0 0.0 0.00 0.00 0.00 77 1023.5
20260901222218 56 109 0.0 0.0 0.00 0.00 0.00 76 1023.5
20260901221716 56 10 0.0 0.0 0.00 0.00 0.00 76 1023.5
20260901221211 56 321 0.0 0.0 0.00 0.00 0.00 76 1023.5
20260901220216 56 331 0.0 0.0 0.00 0.00 0.00 76 1023.5
20260901215713 56 312 0.0 0.0 0.00 0.00 0.00 76 1023.5
20260901215225 56 313 0.0 0.0 0.00 0.00 0.00 77 1023.6
20260901214715 56 313 0.0 0.0 0.00 0.00 0.00 77 1023.5
20260901213720 56 19 0.0 0.0 0.00 0.00 0.00 76 1023.6
20260901212726 56 22 0.0 0.0 0.00 0.00 0.00 77 1023.5
20260901212241 56 5 0.0 0.0 0.00 0.00 0.00 76 1023.5
20260901211729 56 5 0.0 0.0 0.00 0.00 0.00 77 1023.5
20260901211210 56 355 0.0 0.0 0.00 0.00 0.00 77 1023.5
20260901210228 56 355 0.0 0.0 0.00 0.00 0.00 77 1023.6
20260901205722 56 355 0.0 0.0 0.00 0.00 0.00 76 1023.6
20260901205222 57 355 0.0 0.0 0.00 0.00 0.00 76 1023.6
20260901204216 57 355 0.0 0.0 0.00 0.00 0.00 76 1023.7
20260901203728 57 342 0.0 0.0 0.00 0.00 0.00 75 1023.6
20260901203217 57 342 0.0 0.0 0.00 0.00 0.00 75 1023.6
20260901202228 57 331 0.0 0.0 0.00 0.00 0.00 75 1023.6
20260901201217 57 342 0.0 0.0 0.00 0.00 0.00 75 1023.6
20260901200719 58 9 0.0 0.0 0.00 0.00 0.00 74 1023.7
20260901200223 58 9 0.0 0.0 0.00 0.00 0.00 74 1023.6
20260901195208 58 9 0.0 0.0 0.00 0.00 0.00 73 1023.6
20260901194716 58 9 0.0 0.0 0.00 0.00 0.00 73 1023.6
20260901194216 58 9 0.0 0.0 0.00 0.00 0.00 73 1023.6
20260901193725 58 9 0.0 0.0 0.00 0.00 0.00 73 1023.5
20260901192718 59 14 0.0 0.0 0.00 0.00 0.00 73 1023.5
20260901192226 59 14 0.0 0.0 0.00 0.00 0.00 72 1023.5
20260901191721 59 355 0.0 0.0 0.00 0.00 0.00 71 1023.6
20260901191221 60 41 0.0 0.0 0.00 0.00 0.00 72 1023.5
20260901190719 60 43 0.0 0.0 0.00 0.00 0.00 71 1023.4
20260901190228 60 0 0.0 0.0 0.00 0.00 0.00 71 1023.4
20260901185722 60 5 0.0 5.0 0.00 0.00 0.00 70 1023.4
20260901185231 60 16 0.0 6.0 0.00 0.00 0.00 69 1023.3
20260901184217 61 347 1.0 6.0 0.00 0.00 0.00 68 1023.2
20260901183709 61 345 0.0 0.0 0.00 0.00 0.00 68 1023.2
20260901183212 62 342 0.0 0.0 0.00 0.00 0.00 68 1023.1
20260901182712 62 350 0.0 0.0 0.00 0.00 0.00 68 1023.1
20260901182222 62 355 0.0 0.0 0.00 0.00 0.00 68 1023.0
20260901181724 62 340 0.0 2.0 0.00 0.00 0.00 67 1023.0
20260901181216 63 16 0.0 7.0 0.00 0.00 0.00 66 1023.0
20260901180730 63 349 1.0 7.0 0.00 0.00 0.00 66 1022.8
20260901180215 63 11 4.0 7.0 0.00 0.00 0.00 66 1022.8
20260901175722 64 5 5.0 7.0 0.00 0.00 0.00 65 1022.8
20260901174725 64 338 0.0 0.0 0.00 0.00 0.00 64 1022.8
20260901173719 65 348 0.0 0.0 0.00 0.00 0.00 63 1022.7
20260901173218 65 331 0.0 0.0 0.00 0.00 0.00 63 1022.7
20260901172713 65 342 0.0 0.0 0.00 0.00 0.00 63 1022.7
20260901172229 66 336 0.0 0.0 0.00 0.00 0.00 62 1022.7
20260901171722 66 321 0.0 0.0 0.00 0.00 0.00 61 1022.7
20260901171229 67 340 0.0 0.0 0.00 0.00 0.00 60 1022.7
20260901170723 67 325 0.0 0.0 0.00 0.00 0.00 59 1022.6
20260901170223 68 328 0.0 0.0 0.00 0.00 0.00 57 1022.7
20260901165718 68 342 0.0 0.0 0.00 0.00 0.00 56 1022.8
20260901165216 69 334 0.0 0.0 0.00 0.00 0.00 56 1023.0
20260901164719 69 309 0.0 0.0 0.00 0.00 0.00 55 1022.8
20260901164231 69 333 0.0 0.0 0.00 0.00 0.00 52 1023.0
20260901163717 69 327 0.0 0.0 0.00 0.00 0.00 53 1023.0
20260901163223 69 304 0.0 0.0 0.00 0.00 0.00 52 1023.0
20260901162721 69 324 0.0 0.0 0.00 0.00 0.00 56 1023.0
20260901162223 69 319 0.0 0.0 0.00 0.00 0.00 55 1023.0
20260901161717 69 317 0.0 0.0 0.00 0.00 0.00 53 1023.0
20260901160728 70 302 0.0 0.0 0.00 0.00 0.00 52 1023.0
20260901160220 70 313 0.0 6.0 0.00 0.00 0.00 51 1023.0
20260901155724 70 341 1.0 6.0 0.00 0.00 0.00 48 1023.0
20260901155220 70 303 3.0 6.0 0.00 0.00 0.00 49 1022.8
20260901154728 70 307 2.0 6.0 0.00 0.00 0.00 47 1023.0
20260901154214 70 316 1.0 0.0 0.00 0.00 0.00 50 1023.0
20260901153716 70 277 0.0 4.0 0.00 0.00 0.00 49 1023.0
20260901153214 70 249 0.0 5.0 0.00 0.00 0.00 49 1023.0
20260901152211 71 340 3.0 9.0 0.00 0.00 0.00 46 1023.0
20260901151738 71 258 2.0 10.0 0.00 0.00 0.00 45 1022.8
20260901151245 71 9 3.0 11.0 0.00 0.00 0.00 46 1023.0
20260901150726 71 342 4.0 11.0 0.00 0.00 0.00 47 1023.0
20260901150225 72 331 2.0 9.0 0.00 0.00 0.00 47 1023.0
20260901145725 71 300 2.0 9.0 0.00 0.00 0.00 47 1023.0
20260901145229 72 318 3.0 9.0 0.00 0.00 0.00 47 1023.0
20260901144223 72 247 0.0 4.0 0.00 0.00 0.00 47 1023.0
20260901143718 72 61 0.0 10.0 0.00 0.00 0.00 46 1023.0
20260901143222 71 249 2.0 10.0 0.00 0.00 0.00 47 1023.0
20260901142719 71 262 5.0 10.0 0.00 0.00 0.00 46 1023.0
20260901140718 71 203 5.0 9.0 0.00 0.00 0.00 47 1023.0
20260901140218 71 245 3.0 9.0 0.00 0.00 0.00 46 1023.1
20260901135724 71 267 2.0 8.0 0.00 0.00 0.00 47 1023.1
20260901135217 71 314 4.0 15.0 0.00 0.00 0.00 47 1023.1
20260901134213 71 323 3.0 15.0 0.00 0.00 0.00 46 1023.2
20260901133716 71 55 3.0 11.0 0.00 0.00 0.00 48 1023.2
20260901133211 71 307 3.0 13.0 0.00 0.00 0.00 48 1023.3
20260901132722 71 323 4.0 13.0 0.00 0.00 0.00 46 1023.3
20260901132209 72 300 3.0 13.0 0.00 0.00 0.00 45 1023.3
20260901131727 73 297 2.0 10.0 0.00 0.00 0.00 44 1023.2
20260901130730 72 277 3.0 9.0 0.00 0.00 0.00 47 1023.3
20260901130218 71 297 2.0 9.0 0.00 0.00 0.00 48 1023.3
20260901125727 71 279 4.0 9.0 0.00 0.00 0.00 48 1023.4
20260901125222 70 327 3.0 7.0 0.00 0.00 0.00 50 1023.4
20260901123724 69 294 1.0 10.0 0.00 0.00 0.00 47 1023.5
20260901123217 70 311 2.0 11.0 0.00 0.00 0.00 47 1023.6
20260901122220 71 268 4.0 11.0 0.00 0.00 0.00 48 1023.6
20260901121729 70 68 4.0 11.0 0.00 0.00 0.00 48 1023.6
20260901121223 70 313 1.0 10.0 0.00 0.00 0.00 48 1023.6
20260901120724 70 355 2.0 11.0 0.00 0.00 0.00 48 1023.6
20260901120220 70 350 3.0 11.0 0.00 0.00 0.00 48 1023.7
20260901115724 69 278 4.0 11.0 0.00 0.00 0.00 48 1023.7
20260901115223 69 333 3.0 11.0 0.00 0.00 0.00 48 1023.7
20260901114722 70 281 3.0 11.0 0.00 0.00 0.00 47 1023.7
20260901114222 70 74 4.0 11.0 0.00 0.00 0.00 46 1023.8
20260901113726 70 280 2.0 11.0 0.00 0.00 0.00 47 1023.8
20260901113207 69 296 2.0 11.0 0.00 0.00 0.00 47 1023.8
20260901112728 69 328 3.0 11.0 0.00 0.00 0.00 46 1023.8
20260901111722 69 338 2.0 11.0 0.00 0.00 0.00 47 1023.8
20260901111221 69 322 4.0 11.0 0.00 0.00 0.00 50 1023.9
20260901110723 69 329 4.0 9.0 0.00 0.00 0.00 48 1023.8
20260901110225 68 305 2.0 12.0 0.00 0.00 0.00 50 1023.8
20260901105722 67 286 3.0 12.0 0.00 0.00 0.00 51 1023.8
20260901105217 67 290 5.0 12.0 0.00 0.00 0.00 49 1023.9
20260901104717 68 333 5.0 13.0 0.00 0.00 0.00 48 1024.0
20260901104219 68 290 3.0 13.0 0.00 0.00 0.00 52 1024.0
20260901103226 69 280 2.0 11.0 0.00 0.00 0.00 53 1024.0
20260901102209 68 317 4.0 12.0 0.00 0.00 0.00 55 1024.1
20260901101729 68 306 3.0 11.0 0.00 0.00 0.00 56 1024.1
20260901101209 68 244 1.0 7.0 0.00 0.00 0.00 57 1024.1
20260901100240 67 206 0.0 11.0 0.00 0.00 0.00 57 1024.1
20260901095722 66 205 1.0 11.0 0.00 0.00 0.00 58 1024.0
20260901095228 66 55 2.0 11.0 0.00 0.00 0.00 57 1024.1
20260901094728 67 300 2.0 7.0 0.00 0.00 0.00 59 1024.1
20260901094222 67 306 1.0 0.0 0.00 0.00 0.00 59 1024.1
20260901093710 66 323 0.0 6.0 0.00 0.00 0.00 61 1024.1
20260901093225 65 282 0.0 6.0 0.00 0.00 0.00 61 1024.1
20260901092722 65 325 1.0 10.0 0.00 0.00 0.00 61 1024.1
20260901092218 65 327 3.0 10.0 0.00 0.00 0.00 61 1024.1
20260901091724 66 329 4.0 10.0 0.00 0.00 0.00 61 1024.1
20260901091214 66 309 3.0 8.0 0.00 0.00 0.00 60 1024.1
20260901090707 66 78 1.0 8.0 0.00 0.00 0.00 60 1024.1
20260901090228 66 289 1.0 10.0 0.00 0.00 0.00 63 1024.0
20260901085219 65 342 4.0 10.0 0.00 0.00 0.00 61 1024.0
20260901084720 65 355 3.0 7.0 0.00 0.00 0.00 62 1024.0
20260901084217 65 173 2.0 7.0 0.00 0.00 0.00 62 1024.0
20260901083712 65 332 2.0 7.0 0.00 0.00 0.00 62 1024.0
20260901083230 65 0 1.0 4.0 0.00 0.00 0.00 64 1024.1